Tracking 25710 objects as of 7-Jul-2022
HD Live streaming from Space Station
objects crossing your sky now

FENGYUN 1C DEB

Track FENGYUN 1C DEB now!
10-day predictions


NORAD ID: 31880
Int'l Code: 1999-025CKF
Perigee: 851.8 km
Apogee: 1,048.3 km
Inclination: 100.0 °
Period: 103.9 minutes
Semi major axis: 7321 km
RCS: 0.0108 m2 (small)
Launch date: May 10, 1999
Source: People's Republic of China (PRC)
Launch site: Taiyaun Space Center, China (TSC)

Note: This is SATELLITE DEBRIS
aabbcc
Your satellite tracking list
Your tracking list is empty




NASA's NSSDC Master Catalog

Two Line Element Set (TLE):
1 31880U 99025CKF 22186.42447347  .00000611  00000-0  53664-3 0  9994
2 31880  99.9950 247.2304 0134222 203.0033 156.5074 13.85927184455572
Source of the keplerian elements: AFSPC